Theta_e
324 323 323 322 323 323 322 321 321 321 322 323 323 323 323 324 323 326 327 328 328 328 328 328 328 327 327 328 328 328 327 327 326 325 324 323 322 321 321 320 319 318
322 322 321 322 321 320 321 321 321 321 321 321 322 322 322 321 322 324 325 325 325 326 327 327 327 327 327 326 326 326 327 327 326 325 324 323 322 321 321 321 320 320
319 319 320 320 321 320 319 318 319 320 320 320 320 320 321 320 321 322 323 323 324 324 325 326 326 326 326 326 326 326 325 325 325 324 323 323 322 321 322 322 321 319
318 319 320 319 318 317 317 316 317 317 316 317 317 318 319 318 319 319 321 316 322 322 323 324 324 325 325 325 325 325 325 325 325 323 321 321 321 321 320 319 318 318
314 315 315 315 313 315 315 315 316 315 315 314 313 312 311 312 315 316 318 318 319 320 321 322 323 323 322 324 324 323 323 323 323 321 320 319 318 318 317 315 314 312
308 310 311 311 311 312 312 312 312 310 311 309 312 308 312 312 314 315 316 316 316 318 319 321 321 322 322 321 321 323 323 321 320 319 318 316 314 313 314 313 312 310
306 306 307 307 307 307 308 307 308 306 309 309 306 311 310 311 312 315 316 316 317 317 319 319 319 318 318 320 320 318 319 320 319 317 317 315 311 309 306 311 312 310
304 303 304 304 305 305 305 304 304 306 305 305 305 304 306 311 312 314 315 317 317 317 317 317 318 320 319 317 315 315 315 315 314 314 314 310 307 308 306 306 305 305
300 300 301 302 303 302 299 298 299 299 299 304 301 302 303 306 310 311 312 313 314 313 315 314 316 316 316 316 316 316 315 312 309 310 311 308 306 307 306 304 303 302
298 296 298 298 299 295 295 296 297 297 297 302 303 304 307 305 307 309 308 309 310 311 311 311 308 308 309 310 314 313 314 314 310 310 310 309 309 308 306 304 304 301
295 293 295 294 295 295 297 298 299 300 299 302 302 303 305 306 305 305 306 308 309 309 310 310 311 311 311 310 310 309 310 309 309 308 307 307 307 307 301 304 303 302
291 290 291 292 293 294 296 298 298 300 300 299 300 305 303 302 303 302 302 306 306 308 308 308 308 308 308 309 309 307 306 306 306 306 305 304 303 302 303 303 302 301
292 293 295 297 298 298 298 298 298 297 297 299 298 299 300 300 299 301 299 301 303 303 304 305 305 304 305 305 305 305 304 304 303 303 302 301 300 300 300 300 300 300
295 295 296 297 297 298 299 298 298 297 297 296 296 298 298 298 298 299 298 298 298 299 299 299 299 300 300 300 301 301 300 299 298 298 298 298 296 297 297 298 298 297
296 295 297 297 296 297 297 297 296 295 294 294 294 294 294 294 296 297 296 296 295 296 297 297 298 300 299 298 299 298 299 300 299 297 295 295 294 293 292 293 294 294
297 297 297 296 295 296 295 292 292 291 291 291 292 292 292 292 293 294 294 294 294 293 293 294 296 297 294 295 296 299 298 298 296 294 294 294 293 292 292 292 293 293
297 297 296 295 295 293 291 291 290 289 289 289 289 290 291 290 291 292 291 291 292 292 292 293 295 296 294 295 297 297 297 296 296 294 294 292 292 292 293 291 290 290
296 294 293 292 291 291 291 290 289 289 289 289 288 289 289 288 290 290 290 290 291 290 291 291 292 293 295 295 296 296 295 295 294 293 293 291 291 291 290 289 288 287
294 293 292 291 291 291 290 289 289 289 288 288 289 288 287 289 289 289 290 289 290 290 290 290 290 292 294 294 295 295 295 294 292 291 290 290 289 289 289 288 287 287
293 293 292 291 290 289 289 289 289 289 288 288 288 287 288 288 288 288 288 289 288 289 289 289 290 291 293 294 294 294 295 294 291 290 289 289 289 289 288 287 287 287
293 293 292 290 289 289 288 288 289 288 288 288 288 288 288 288 288 288 289 288 288 288 288 290 290 292 293 293 294 294 294 292 289 290 289 289 288 288 288 287 287 287
293 292 291 290 289 288 288 288 288 288 288 288 287 287 287 288 287 288 288 288 288 289 289 290 289 291 292 293 293 294 294 290 288 288 288 287 287 287 287 286 286 286
293 292 290 289 289 288 288 288 288 287 287 288 288 288 288 288 288 287 287 288 287 288 289 289 288 289 291 292 293 294 292 289 288 287 287 287 286 286 286 285 285 285
292 292 290 289 289 288 288 288 288 288 288 288 288 288 288 287 287 287 287 287 287 288 289 288 288 287 290 291 292 293 290 288 288 287 286 286 285 285 285 284 284 284
292 291 291 289 289 289 288 288 287 288 287 287 287 287 287 287 287 287 286 287 287 287 287 288 287 286 289 290 291 292 290 287 287 287 286 285 285 284 283 283 283 284
291 290 290 289 289 289 288 288 288 287 287 287 287 287 287 287 287 287 286 286 286 286 286 286 285 285 286 290 291 291 291 287 287 287 286 286 285 284 282 282 282 283
Wind_Speed
9 9 10 10 11 11 10 10 9 9 9 9 10 9 10 9 8 10 11 11 12 11 10 10 10 9 9 9 10 10 9 10 9 9 11 11 12 13 12 12 11 10
11 11 10 10 9 9 9 8 8 9 10 9 9 8 7 6 7 9 10 11 10 11 9 9 9 9 9 8 7 9 10 10 11 8 11 13 12 12 13 13 13 10
8 9 10 11 11 9 7 6 7 8 8 8 7 7 7 7 8 9 9 9 9 9 10 9 9 9 9 10 10 10 10 11 12 8 10 12 10 11 12 12 11 12
8 9 9 8 7 7 6 7 7 6 6 6 6 6 7 6 7 7 7 8 8 8 8 8 8 7 7 8 10 11 11 11 10 9 9 8 9 10 9 7 7 8
7 6 5 5 5 6 6 7 7 7 6 6 4 4 4 4 5 6 7 7 7 7 7 8 7 6 6 9 10 9 8 9 9 8 9 10 8 8 7 7 6 6
5 5 5 5 5 6 6 5 5 4 5 5 5 4 5 5 5 6 7 7 7 7 8 8 8 8 8 7 7 10 11 9 7 9 9 8 6 5 5 7 8 9
5 4 5 4 4 4 4 4 4 4 5 5 4 5 5 5 6 7 7 7 8 8 8 7 7 6 6 8 10 8 8 10 10 10 11 9 7 7 6 8 11 12
5 4 4 4 4 3 4 3 2 2 2 1 4 4 4 6 6 6 6 7 7 7 7 7 7 8 8 8 7 7 8 6 8 10 10 7 7 7 6 6 4 4
3 4 3 4 4 3 3 2 2 1 0 1 2 2 2 3 4 5 5 5 6 6 6 5 6 7 8 8 9 9 9 7 5 6 8 9 8 8 8 7 7 7
3 2 2 2 3 3 3 1 0 1 2 1 2 2 2 2 2 4 4 4 4 5 6 6 4 4 5 5 7 7 8 9 9 9 9 10 11 11 10 10 11 10
2 1 1 1 1 1 1 1 1 1 2 2 2 3 3 2 3 2 4 4 4 5 6 6 7 7 7 7 7 6 7 8 8 8 8 8 9 10 10 11 9 11
1 1 1 1 0 1 0 1 1 1 2 2 1 2 3 4 4 4 4 4 4 5 5 6 6 6 7 7 7 7 6 7 8 8 8 7 6 5 7 10 12 11
3 2 1 1 0 0 0 1 1 1 1 1 1 1 1 2 3 3 3 3 4 4 4 5 5 4 5 6 6 6 6 6 7 7 7 7 7 7 6 6 6 7
4 3 2 3 2 3 2 2 3 4 4 3 1 1 1 2 3 3 3 2 3 3 3 3 4 4 4 4 4 5 5 5 4 5 5 5 5 5 5 6 7 7
4 4 4 5 5 5 5 5 5 4 4 4 3 3 3 3 3 3 3 3 2 3 3 3 4 5 4 4 5 5 4 5 5 6 6 6 5 4 4 4 4 4
6 5 5 4 4 4 4 4 3 3 3 3 3 3 3 2 2 2 3 4 4 3 2 3 4 3 5 8 7 6 5 4 3 4 5 5 6 5 5 5 6 5
6 6 5 5 5 4 3 4 4 4 3 3 3 2 2 2 2 2 3 3 3 3 3 3 4 4 5 7 8 8 5 4 5 4 4 4 4 5 7 6 3 1
6 5 6 5 5 5 5 5 4 4 4 3 3 3 2 2 2 3 2 2 2 2 3 3 2 3 4 6 7 7 6 4 3 4 4 3 3 4 2 2 2 2
6 6 6 6 5 5 5 5 5 4 4 4 4 3 3 3 3 2 1 1 2 3 3 2 2 3 3 5 6 6 6 4 2 2 3 3 3 3 3 3 3 3
7 7 7 6 5 5 5 5 5 5 4 4 4 3 4 3 3 3 3 3 3 3 3 2 3 3 4 5 5 5 6 4 2 2 2 2 2 2 2 3 4 5
8 7 7 6 5 5 5 5 5 4 5 5 4 5 5 5 5 4 4 3 3 3 3 2 2 3 4 5 5 6 7 6 4 4 4 3 3 3 3 5 5 6
8 8 7 6 6 5 6 5 5 6 7 5 4 3 3 3 2 3 4 3 4 4 3 3 2 5 7 7 8 9 10 7 7 7 7 6 5 5 6 6 7 7
9 9 8 7 7 7 6 6 6 5 4 4 5 5 4 4 4 3 3 4 4 4 5 4 4 4 7 8 10 11 9 6 6 5 6 7 7 7 7 7 7 7
9 9 9 8 8 8 8 7 6 4 5 5 6 6 5 5 4 3 3 3 3 3 3 3 1 2 4 4 6 9 7 5 4 4 4 5 4 4 4 5 6 10
9 9 9 8 9 8 7 7 7 7 5 5 4 4 4 3 3 3 2 1 0 0 0 1 1 2 1 2 4 6 5 3 3 2 2 2 3 3 2 3 4 7
8 9 8 8 8 7 6 6 5 4 5 5 4 4 4 4 3 3 3 1 1 1 1 1 1 1 1 2 3 5 6 3 2 3 4 4 4 4 3 3 4 5
Wind_Direction
208 205 212 213 220 220 216 215 213 215 219 217 218 217 213 214 207 210 214 218 221 223 222 224 226 230 232 231 224 222 227 232 228 215 213 210 212 208 210 207 206 204
205 205 211 214 222 218 218 210 211 214 221 219 222 222 220 205 209 209 214 218 219 222 222 224 226 228 229 230 231 227 224 227 232 216 215 212 212 208 213 208 208 205
203 203 206 212 218 219 215 207 211 218 219 221 222 218 218 210 213 211 216 215 216 217 218 221 227 229 232 232 232 234 233 230 232 224 220 216 212 212 214 208 208 202
212 209 208 215 215 218 211 213 222 220 221 228 222 216 214 215 211 209 212 209 213 216 218 220 225 232 232 234 228 226 226 228 228 223 223 224 216 212 213 206 208 204
210 214 216 214 210 209 204 214 224 220 218 224 231 225 212 206 203 206 204 206 207 212 210 214 214 223 233 232 225 232 228 228 220 214 217 217 212 206 204 188 193 205
210 202 204 204 206 199 210 216 221 218 228 233 228 217 210 199 199 199 198 200 202 204 207 209 211 217 219 239 252 228 219 228 224 214 216 213 211 207 194 190 191 197
210 203 212 200 203 198 205 218 219 217 221 223 210 218 205 208 206 201 197 197 197 203 205 205 209 219 236 229 225 240 241 221 216 216 220 219 204 209 219 213 206 194
203 199 194 177 186 178 184 190 189 193 213 174 207 236 191 207 210 207 201 197 198 201 205 205 208 218 222 222 230 228 228 230 220 209 215 206 189 190 181 174 174 171
176 192 181 187 192 200 202 211 235 260 278 210 230 253 251 202 205 200 200 200 202 208 211 207 211 220 223 223 227 226 228 227 217 214 205 192 188 190 192 188 181 183
185 198 181 205 205 225 222 250 320 345 336 308 265 244 244 257 216 206 202 202 208 214 216 217 227 247 244 236 232 234 234 224 213 211 209 204 201 199 194 187 188 178
212 145 156 333 310 349 330 337 353 355 3 331 301 287 257 247 269 250 226 215 223 232 230 227 226 226 229 234 232 227 225 222 218 217 216 215 210 202 198 194 187 181
216 109 119 114 104 56 12 25 34 20 321 310 347 264 262 240 228 244 231 240 242 241 244 245 241 235 229 230 229 224 218 214 209 208 209 210 211 213 207 195 184 186
195 180 155 163 127 227 332 15 359 345 9 302 267 201 252 282 280 254 247 220 240 241 240 241 245 242 238 235 233 224 217 212 208 207 204 201 199 189 188 205 204 189
192 170 174 189 206 218 235 249 256 260 254 235 240 266 229 225 232 221 249 208 236 234 237 235 237 236 237 237 229 219 210 214 210 206 202 205 202 201 201 203 200 194
181 181 192 198 199 199 200 205 207 209 220 228 216 213 201 205 203 204 220 225 222 214 224 213 212 223 219 214 214 218 210 208 201 194 190 193 192 196 201 207 210 196
184 188 185 185 179 189 192 179 169 165 166 174 195 207 212 201 191 189 197 215 219 225 212 207 219 228 220 212 208 205 205 205 188 188 189 190 187 189 196 197 198 198
181 183 181 184 185 178 165 165 172 164 159 164 173 168 165 170 170 189 217 209 208 210 219 223 227 225 220 216 215 207 192 188 192 196 185 184 190 190 200 200 194 146
175 172 173 180 172 181 181 178 161 161 165 165 152 153 164 137 166 199 198 204 204 213 226 241 268 307 241 230 226 218 199 192 182 180 178 185 188 194 176 142 128 109
168 172 178 180 188 185 176 164 163 159 157 158 177 175 142 156 190 158 196 199 190 212 238 250 244 248 237 224 220 215 200 173 152 145 156 171 162 155 139 136 141 156
171 174 181 186 181 175 167 167 165 176 173 163 144 148 153 160 163 175 180 186 195 204 219 229 232 234 219 210 204 193 177 147 113 124 132 137 146 137 134 154 169 178
176 175 182 177 172 167 169 175 176 163 163 166 163 167 168 176 175 174 186 180 188 190 197 220 237 207 207 194 178 164 150 129 122 119 120 115 109 127 158 183 187 185
174 174 175 169 166 166 172 180 181 178 171 167 148 154 159 145 159 162 170 177 180 176 176 189 200 187 184 178 168 162 154 148 150 153 155 152 149 160 179 188 186 184
175 172 173 169 167 169 181 182 181 179 172 159 148 161 162 172 178 180 180 173 175 179 177 185 191 195 183 177 172 166 157 162 159 160 163 163 173 180 188 187 189 183
172 171 171 170 170 179 182 187 185 175 173 170 162 165 170 177 167 159 176 180 175 193 193 183 202 212 179 182 178 176 168 169 169 163 164 161 176 192 186 194 190 181
169 171 171 171 178 184 180 175 179 181 172 164 159 152 153 150 138 126 104 51 91 167 86 78 39 348 264 192 187 183 168 161 151 142 145 182 196 208 196 186 185 187
170 172 173 172 178 180 178 179 165 152 159 156 147 136 133 130 121 120 118 82 58 60 48 52 63 34 322 238 209 206 183 156 143 147 193 204 205 197 186 210 197 195